Location: Kermapucano
(48.0667°N, 3.3000°W)
Time: 20:52:55
(UTC+00:00)

H-2A R/B - Pass Details

Date: 29 November 2020
Orbit: 499 x 540 km, 97.3° (Epoch: 22 January)

Event Time Altitude Azimuth Distance (km) Brightness Sun altitude
Rises 06:08:54 0° 10° (N) 2,713 6.3 -14.7°
Reaches altitude 10° 06:11:03 10° 8° (N) 1,813 5.4 -14.3°
Maximum altitude 06:14:57 70° 286° (WNW) 578 2.7 -13.7°
Drops below altitude 10° 06:18:47 10° 202° (SSW) 1,783 5.4 -13.1°
Sets 06:20:52 0° 200° (SSW) 2,663 6.3 -12.8°
